Regional Weather Roundup
Issued by NWS Little Rock, AR

Home | Current Version | Previous Version | Graphics & Text | Print | Product List | Glossary On
Versions: 1 2 3 4 5 6 7 8 9 10 11 12 13 14 15 16 17 18 19 20 21 22 23 24 25 26 27 28 29 30 31 32 33 34 35 36 37 38 39 40 41 42 43 44 45 46 47 48 49 50
000
ASUS44 KLZK 262105
RWRLZK

WEATHER ROUNDUP FOR ARKANSAS
NATIONAL WEATHER SERVICE LITTLE ROCK AR
400 PM CDT FRI MAY 26 2017

NOTE: "FAIR" INDICATES FEW OR NO CLOUDS BELOW 12,000 FEET WITH NO
SIGNIFICANT WEATHER AND/OR OBSTRUCTIONS TO VISIBILITY.

ARZ001-003-010-029-262200-
NORTHWEST ARKANSAS

CITY           SKY/WX    TMP DP  RH WIND       PRES   REMARKS
FAYETTEVILLE   PTSUNNY   84  71  65 SW12      29.78S HX  89
FORT SMITH     PTSUNNY   86  69  56 S12       29.75S HX  90
HARRISON       PTSUNNY   83  68  60 SW8       29.79S HX  86
BENTONVILLE    MOSUNNY   84  70  61 SW8G17    29.78F HX  88
ROGERS         PTSUNNY   85  69  58 S12       29.78S HX  89
SILOAM SPGS    PTSUNNY   84  70  61 S15       29.76F HX  88
HIGHFILL       MOSUNNY   85  70  60 SW10      29.77F HX  89
SPRINGDALE     PTSUNNY   84  70  61 S16G23    29.79F HX  88
$$

ARZ004-005-016-262200-
NORTH CENTRAL ARKANSAS

CITY           SKY/WX    TMP DP  RH WIND       PRES   REMARKS
BATESVILLE     PTSUNNY   81  70  69 SW13G22   29.81F
FLIPPIN        CLOUDY    79  64  61 S7        29.76F
MTN HOME       PTSUNNY   78  67  68 SW9       29.78S
$$

ARZ040-041-262200-
WEST CENTRAL ARKANSAS

CITY           SKY/WX    TMP DP  RH WIND       PRES   REMARKS
MENA           PTSUNNY   86  79  79 S3        29.82S HX  99
MOUNT IDA      PTSUNNY   83  69  62 VRB3      29.80S HX  86
$$

ARZ009-017-025-026-028-262200-
NORTHEAST ARKANSAS

CITY           SKY/WX    TMP DP  RH WIND       PRES   REMARKS
JONESBORO      CLOUDY    81  67  62 SW20G31   29.80F
NEWPORT        MOSUNNY   81  69  67 SW26G36   29.80S
WALNUT RIDGE   CLOUDY    77  66  69 SW20      29.80S
BLYTHEVILLE    CLOUDY    81  66  60 SW23G37   29.82F
NW BLYTHEVILLE CLOUDY    81  66  61 SW26G37   29.81F
$$

ARZ022-023-033-042-044-262200-
CENTRAL ARKANSAS

CITY           SKY/WX    TMP DP  RH WIND       PRES   REMARKS
LITTLE ROCK    PTSUNNY   82  72  71 S16G24    29.83S HX  87
N LITTLE ROCK    N/A     80  71  74 S9G18     29.82F
JACKSONVILLE   PTSUNNY   81  71  71 S13       29.82S HX  85
CONWAY           N/A     82  72  69 S15       29.79F HX  87
SEARCY         CLOUDY    78  71  79 S9G21     29.84F
HOT SPRINGS    CLOUDY    83  72  69 SW6       29.82S HX  88
RUSSELLVILLE   MOSUNNY   84  70  62 VRB7      29.78F HX  88
CLINTON        CLOUDY    75  70  83 CALM      29.81F HAZE
$$

ARZ036-262200-
EAST ARKANSAS

CITY           SKY/WX    TMP DP  RH WIND       PRES   REMARKS
WEST MEMPHIS   CLOUDY    81  67  62 S17G25    29.84F
$$

ARZ050-053-066-070-073-262200-
SOUTHWEST ARKANSAS

CITY           SKY/WX    TMP DP  RH WIND       PRES   REMARKS
ARKADELPHIA      N/A     85  73  67 S10G23    29.81F HX  91
CAMDEN         PTSUNNY   84  68  58 S12       29.83F HX  87
TEXARKANA      PTSUNNY   85  72  65 S13G20    29.81F HX  91
EL DORADO      MOSUNNY   84  71  65 S12G29    29.85F HX  89
DE QUEEN       PTSUNNY   88  75  65 S10       29.77S HX  97
$$

ARZ056-057-069-262200-
SOUTHEAST ARKANSAS

CITY           SKY/WX    TMP DP  RH WIND       PRES   REMARKS
PINE BLUFF     PTSUNNY   82  70  66 S20G28    29.84F HX  86
STUTTGART      PTSUNNY   82  63  51 S23G31    29.85S
MONTICELLO     PTSUNNY   84  69  60 S14G25    29.87F HX  88

$$





USA.gov is the U.S. government's official web portal to all federal, state and local government web resources and services.